DW7787 Weather Reports


Display with metric or nautical units.
time (UTC)temp
F
wind
direction
speed
MPH
gust
MPH
rain 1hr
in
rain 24hr
in
rain mn
in
humidity
%
barometer
mb
20260510101730 59 282 0.0 1.0 0.00 0.00 0.00 93 1015.1
20260510101237 59 282 0.0 1.0 0.00 0.00 0.00 93 1015.0
20260510101044 59 282 0.0 1.0 0.00 0.00 0.00 93 1014.9
20260510100553 59 282 0.0 0.0 0.00 0.00 0.00 93 1014.9
20260510095727 59 282 0.0 0.0 0.00 0.00 0.00 93 1014.9
20260510095218 59 282 0.0 1.0 0.00 0.00 0.00 93 1014.8
20260510094713 59 281 0.0 1.0 0.00 0.00 0.00 93 1014.7
20260510094207 60 282 0.0 0.0 0.00 0.00 0.00 93 1014.7
20260510093700 60 282 0.0 0.0 0.00 0.00 0.00 93 1014.6
20260510093154 60 282 0.0 0.0 0.00 0.00 0.00 93 1014.5
20260510092647 60 282 0.0 0.0 0.00 0.00 0.00 93 1014.4
20260510092142 60 282 0.0 0.0 0.00 0.00 0.00 93 1014.4
20260510091634 60 281 0.0 0.0 0.00 0.00 0.00 93 1014.3
20260510091603 60 281 0.0 1.0 0.00 0.00 0.00 93 1014.3
20260510091557 60 281 0.0 1.0 0.00 0.00 0.00 93 1014.3
20260510090135 60 281 0.0 1.0 0.00 0.00 0.00 93 1014.2
20260510085634 60 284 0.0 1.0 0.00 0.00 0.00 93 1014.2
20260510085133 60 284 0.0 1.0 0.00 0.00 0.00 93 1014.2
20260510084630 60 315 0.0 1.0 0.00 0.00 0.00 93 1014.0
20260510084130 60 315 0.0 1.0 0.00 0.00 0.00 93 1014.0
20260510083630 60 315 0.0 2.0 0.00 0.00 0.00 93 1014.0
20260510083131 60 282 0.0 2.0 0.00 0.00 0.00 92 1013.9
20260510082629 60 250 0.0 1.0 0.00 0.00 0.00 92 1013.9
20260510082133 60 250 0.0 1.0 0.00 0.00 0.00 92 1013.8
20260510081631 60 250 0.0 1.0 0.00 0.00 0.00 92 1013.7
20260510081129 60 250 0.0 0.0 0.00 0.00 0.00 92 1013.6
20260510080632 60 250 0.0 1.0 0.00 0.00 0.00 92 1013.7
20260510080130 60 250 0.0 1.0 0.00 0.00 0.00 92 1013.6
20260510075629 60 250 0.0 0.0 0.00 0.00 0.00 92 1013.6
20260510075133 60 250 0.0 0.0 0.00 0.00 0.00 91 1013.6
20260510074630 61 250 0.0 0.0 0.00 0.00 0.00 91 1013.6
20260510074126 61 250 0.0 0.0 0.00 0.00 0.00 91 1013.6
20260510073619 61 250 0.0 0.0 0.00 0.00 0.00 91 1013.5
20260510073415 61 250 0.0 0.0 0.00 0.00 0.00 91 1013.5
20260510072611 61 250 0.0 0.0 0.00 0.00 0.00 91 1013.4
20260510072103 61 250 0.0 0.0 0.00 0.00 0.00 91 1013.4
20260510071603 61 250 0.0 0.0 0.00 0.00 0.00 91 1013.4
20260510071101 61 250 0.0 0.0 0.00 0.00 0.00 91 1013.4
20260510070602 61 250 0.0 0.0 0.00 0.00 0.00 91 1013.4
20260510065601 61 250 0.0 0.0 0.00 0.00 0.00 91 1013.5
20260510065408 61 250 0.0 0.0 0.00 0.00 0.00 91 1013.5
20260510064821 62 250 0.0 0.0 0.00 0.00 0.00 89 1013.4
20260510064735 61 250 0.0 0.0 0.00 0.00 0.00 90 1013.5
20260510064141 62 250 0.0 0.0 0.00 0.00 0.00 89 1013.5
20260510063101 62 250 0.0 0.0 0.00 0.00 0.00 89 1013.4
20260510062604 62 250 0.0 0.0 0.00 0.00 0.00 89 1013.5
20260510062101 62 250 0.0 0.0 0.00 0.00 0.00 89 1013.4
20260510061601 62 250 0.0 0.0 0.00 0.00 0.00 89 1013.5
20260510061105 62 250 0.0 0.0 0.00 0.00 0.00 88 1013.5
20260510060602 62 250 0.0 0.0 0.00 0.00 0.00 88 1013.4
20260510060101 62 250 0.0 0.0 0.00 0.00 0.00 88 1013.3
20260510055858 62 250 0.0 0.0 0.00 0.00 0.00 88 1013.3
20260510055101 63 250 0.0 0.0 0.00 0.00 0.00 88 1013.3
20260510054601 63 250 0.0 0.0 0.00 0.00 0.00 88 1013.4
20260510054058 63 250 0.0 0.0 0.00 0.00 0.00 88 1013.4
20260510053557 63 250 0.0 0.0 0.00 0.00 0.00 88 1013.4
20260510053058 63 250 0.0 0.0 0.00 0.00 0.00 87 1013.5
20260510052556 63 250 0.0 0.0 0.00 0.00 0.00 87 1013.5
20260510052202 64 250 0.0 0.0 0.00 0.00 0.00 88 1013.4
20260510052141 63 250 0.0 0.0 0.00 0.00 0.00 87 1013.5
20260510051052 64 250 0.0 1.0 0.00 0.00 0.00 88 1013.4
20260510050553 64 250 0.0 1.0 0.00 0.00 0.00 88 1013.4
20260510050050 64 279 0.0 2.0 0.00 0.00 0.00 87 1013.5
20260510045548 64 306 0.0 2.0 0.00 0.00 0.00 87 1013.5
20260510045050 64 263 0.0 2.0 0.00 0.00 0.00 87 1013.7
20260510044857 64 287 0.0 2.0 0.00 0.00 0.00 87 1013.6
20260510044049 64 0 0.0 1.0 0.00 0.00 0.00 87 1013.6
20260510043855 64 225 0.0 1.0 0.00 0.00 0.00 87 1013.6
20260510043052 64 225 0.0 1.0 0.00 0.00 0.00 87 1013.6
20260510042548 64 225 0.0 1.0 0.00 0.00 0.00 86 1013.6
20260510042049 64 211 0.0 1.0 0.00 0.00 0.00 86 1013.7
20260510041549 64 211 0.0 1.0 0.00 0.00 0.00 86 1013.7
20260510041048 64 211 0.0 2.0 0.00 0.00 0.00 86 1013.7
20260510040550 64 207 0.0 2.0 0.00 0.00 0.00 86 1013.7
20260510040352 64 126 0.0 2.0 0.00 0.00 0.00 86 1013.8
20260510035547 64 208 0.0 2.0 0.00 0.00 0.00 86 1013.7
20260510035045 64 213 0.0 2.0 0.00 0.00 0.00 86 1013.7
20260510034543 64 182 1.0 3.0 0.00 0.00 0.00 86 1013.7
20260510034046 64 231 1.0 3.0 0.00 0.00 0.00 86 1013.7
20260510033542 64 194 0.0 2.0 0.00 0.00 0.00 86 1013.9
20260510033036 64 220 0.0 2.0 0.00 0.00 0.00 86 1013.8
20260510032537 64 220 0.0 2.0 0.00 0.00 0.00 86 1013.8
20260510032338 64 244 0.0 2.0 0.00 0.00 0.00 85 1013.7
20260510031535 64 84 0.0 1.0 0.00 0.00 0.00 85 1013.7
20260510031033 64 88 0.0 1.0 0.00 0.00 0.00 84 1013.7
20260510030530 64 88 0.0 1.0 0.00 0.00 0.00 84 1013.6
20260510030031 64 88 0.0 1.0 0.00 0.00 0.00 84 1013.7
20260510025528 65 88 0.0 1.0 0.00 0.00 0.00 84 1013.6
20260510025021 65 88 0.0 1.0 0.00 0.00 0.00 84 1013.6
20260510024515 65 88 0.0 0.0 0.00 0.00 0.00 84 1013.6
20260510024015 65 88 0.0 1.0 0.00 0.00 0.00 83 1013.6
20260510023814 65 88 0.0 1.0 0.00 0.00 0.00 83 1013.6
20260510023311 65 88 0.0 1.0 0.00 0.00 0.00 82 1013.5
20260510022512 65 88 0.0 0.0 0.00 0.00 0.00 81 1013.5
20260510022013 65 88 0.0 0.0 0.00 0.00 0.00 81 1013.5
20260510021513 65 88 0.0 0.0 0.00 0.00 0.00 81 1013.6
20260510021013 66 88 0.0 0.0 0.00 0.00 0.00 81 1013.5
20260510020513 66 88 0.0 0.0 0.00 0.00 0.00 80 1013.4
20260510020013 66 88 0.0 0.0 0.00 0.00 0.00 80 1013.4
20260510015517 66 88 0.0 0.0 0.00 0.00 0.00 80 1013.4
20260510015013 66 88 0.0 0.0 0.00 0.00 0.00 80 1013.5
20260510014513 66 88 0.0 0.0 0.00 0.00 0.00 79 1013.2
20260510014013 67 88 0.0 1.0 0.00 0.00 0.00 79 1013.2
20260510013513 67 88 0.0 1.0 0.00 0.00 0.00 79 1013.1
20260510013012 67 88 0.0 0.0 0.00 0.00 0.00 78 1013.1
20260510012512 67 88 0.0 1.0 0.00 0.00 0.00 78 1013.1
20260510012013 67 88 0.0 1.0 0.00 0.00 0.00 77 1012.9
20260510011511 67 88 0.0 1.0 0.00 0.00 0.00 77 1012.8
20260510011012 68 88 0.0 1.0 0.00 0.00 0.00 77 1012.7
20260510010513 68 88 0.0 1.0 0.00 0.00 0.00 76 1012.7
20260510010014 68 88 0.0 1.0 0.00 0.00 0.00 76 1012.7
20260510005513 68 88 0.0 2.0 0.00 0.00 0.00 76 1012.7
20260510005010 68 88 0.0 2.0 0.00 0.00 0.00 76 1012.6
20260510004512 68 94 0.0 2.0 0.00 0.00 0.00 75 1012.5
20260510004011 69 94 0.0 2.0 0.00 0.00 0.00 75 1012.3
20260510003511 69 196 0.0 3.0 0.00 0.00 0.00 75 1012.2
20260510003013 69 196 0.0 3.0 0.00 0.00 0.00 75 1012.0
20260510002512 69 198 0.0 2.0 0.00 0.00 0.00 74 1012.0
20260510002010 69 199 0.0 1.0 0.00 0.00 0.00 74 1011.8
20260510001508 69 199 0.0 2.0 0.00 0.00 0.00 74 1011.7
20260510001321 70 199 1.0 3.0 0.00 0.00 0.00 73 1011.8
20260510000504 70 80 1.0 3.0 0.00 0.00 0.00 73 1011.9
20260510000005 70 171 0.0 2.0 0.00 0.00 0.00 73 1011.8
20260509235503 70 67 1.0 2.0 0.00 0.00 0.00 72 1011.8
20260509235003 71 266 1.0 2.0 0.00 0.00 0.00 72 1011.8
20260509234508 71 129 1.0 3.0 0.00 0.00 0.00 73 1011.5
20260509234006 71 207 1.0 3.0 0.00 0.00 0.00 72 1011.6
20260509233505 71 215 1.0 2.0 0.00 0.00 0.00 71 1011.5
20260509233006 71 150 0.0 2.0 0.00 0.00 0.00 71 1011.6
20260509232502 71 53 0.0 2.0 0.00 0.00 0.00 71 1011.8
20260509232002 71 53 0.0 2.0 0.00 0.00 0.00 71 1011.6
20260509231504 72 5 0.0 2.0 0.00 0.00 0.00 70 1011.7
20260509231006 72 5 1.0 2.0 0.00 0.00 0.00 70 1011.6
20260509230504 72 143 1.0 2.0 0.00 0.00 0.00 69 1011.5
20260509230002 72 244 1.0 2.0 0.00 0.00 0.00 69 1011.5
20260509225612 72 214 1.0 3.0 0.00 0.00 0.00 68 1011.5
20260509225551 72 71 1.0 3.0 0.00 0.00 0.00 69 1011.4
20260509224502 72 128 1.0 3.0 0.00 0.00 0.00 68 1011.4
20260509224002 73 167 1.0 3.0 0.00 0.00 0.00 68 1011.1
20260509223502 73 348 1.0 4.0 0.00 0.00 0.00 67 1011.2
20260509223001 73 238 1.0 4.0 0.00 0.00 0.00 69 1011.2
20260509222459 73 211 1.0 3.0 0.00 0.00 0.00 69 1011.2
20260509221956 73 213 1.0 3.0 0.00 0.00 0.00 69 1011.2
20260509221454 73 196 2.0 4.0 0.00 0.00 0.00 68 1011.1
20260509221302 73 190 2.0 4.0 0.00 0.00 0.00 67 1011.1
20260509220759 73 155 2.0 4.0 0.00 0.00 0.00 68 1011.1
20260509220133 73 58 1.0 5.0 0.00 0.00 0.00 68 1010.9
20260509220056 73 196 2.0 4.0 0.00 0.00 0.00 67 1011.1
20260509214952 73 222 2.0 5.0 0.00 0.00 0.00 67 1011.1
20260509214450 73 190 1.0 3.0 0.00 0.00 0.00 68 1010.9
20260509214255 73 127 1.0 4.0 0.00 0.00 0.00 68 1011.0
20260509213455 73 109 1.0 4.0 0.00 0.00 0.00 68 1010.9
20260509212945 73 226 1.0 4.0 0.00 0.00 0.00 67 1011.0
20260509212438 73 223 1.0 2.0 0.00 0.00 0.00 68 1011.1
20260509211932 73 145 1.0 4.0 0.00 0.00 0.00 68 1011.1
20260509211430 73 103 1.0 4.0 0.00 0.00 0.00 67 1010.9
20260509210932 73 126 1.0 3.0 0.00 0.00 0.00 68 1010.9
20260509210737 73 102 2.0 5.0 0.00 0.00 0.00 66 1010.9
20260509210227 73 215 2.0 5.0 0.00 0.00 0.00 67 1010.9
20260509205431 73 203 2.0 4.0 0.00 0.00 0.00 68 1010.9
20260509205239 73 123 2.0 6.0 0.00 0.00 0.00 69 1010.7
20260509204429 73 215 2.0 6.0 0.00 0.00 0.00 68 1011.0
20260509203930 72 188 2.0 8.0 0.00 0.00 0.00 68 1011.1
20260509203431 72 146 2.0 8.0 0.00 0.00 0.00 68 1011.1
20260509202929 73 118 1.0 4.0 0.00 0.00 0.00 68 1011.0
20260509202429 73 132 2.0 7.0 0.00 0.00 0.00 68 1011.1
20260509201930 73 185 2.0 7.0 0.00 0.00 0.00 67 1011.2
20260509201433 73 163 1.0 4.0 0.00 0.00 0.00 67 1011.2
20260509200929 73 194 1.0 6.0 0.00 0.00 0.00 66 1011.0
20260509200428 74 54 1.0 6.0 0.00 0.00 0.00 68 1011.0
20260509195930 73 195 1.0 4.0 0.00 0.00 0.00 68 1011.2
20260509195727 73 177 1.0 4.0 0.00 0.00 0.00 67 1011.3
20260509194921 73 221 1.0 4.0 0.00 0.00 0.00 67 1011.2
20260509194716 73 176 2.0 8.0 0.00 0.00 0.00 68 1011.2
20260509194214 73 214 2.0 8.0 0.00 0.00 0.00 67 1011.3
20260509193409 74 202 1.0 4.0 0.00 0.00 0.00 66 1011.3
20260509192909 73 22 2.0 6.0 0.00 0.00 0.00 69 1011.4
20260509192409 73 145 2.0 6.0 0.00 0.00 0.00 67 1011.3
20260509191908 73 187 1.0 6.0 0.00 0.00 0.00 69 1011.3
20260509191408 72 155 2.0 6.0 0.00 0.00 0.00 69 1011.3
20260509190908 73 42 2.0 5.0 0.00 0.00 0.00 69 1011.3
20260509190407 73 205 2.0 9.0 0.00 0.00 0.00 68 1011.5
20260509185909 73 63 3.0 9.0 0.00 0.00 0.00 66 1011.5
20260509185407 74 75 2.0 6.0 0.00 0.00 0.00 65 1011.6
20260509184907 74 157 1.0 4.0 0.00 0.00 0.00 67 1011.5
20260509184408 73 175 1.0 4.0 0.00 0.00 0.00 70 1011.4
20260509183908 72 150 1.0 4.0 0.00 0.00 0.00 70 1011.7
20260509183409 72 73 1.0 4.0 0.00 0.00 0.00 69 1011.6
20260509182909 72 331 2.0 3.0 0.00 0.00 0.00 69 1011.7
20260509182403 71 69 1.0 4.0 0.00 0.00 0.00 70 1011.7
20260509182013 71 178 1.0 3.0 0.00 0.00 0.00 71 1011.7
20260509181950 71 237 1.0 4.0 0.00 0.00 0.00 70 1011.6
20260509180903 71 212 1.0 4.0 0.00 0.00 0.00 71 1011.7
20260509180705 71 225 1.0 4.0 0.00 0.00 0.00 71 1011.8
20260509175850 71 297 1.0 4.0 0.00 0.00 0.00 71 1011.9
20260509175638 71 210 2.0 4.0 0.00 0.00 0.00 72 1012.0
20260509174839 71 173 2.0 4.0 0.00 0.00 0.00 71 1012.1
20260509174334 71 72 2.0 4.0 0.00 0.00 0.00 71 1012.2
20260509173834 70 69 2.0 4.0 0.00 0.00 0.00 71 1012.1
20260509173333 70 65 1.0 3.0 0.00 0.00 0.00 72 1012.1
20260509172835 70 48 1.0 3.0 0.00 0.00 0.00 72 1012.3
20260509172635 70 174 1.0 4.0 0.00 0.00 0.00 73 1012.3
20260509171833 70 230 1.0 4.0 0.00 0.00 0.00 73 1012.3
20260509171335 69 175 1.0 2.0 0.00 0.00 0.00 74 1012.4
20260509170835 69 115 1.0 3.0 0.00 0.00 0.00 73 1012.4
20260509170333 69 205 2.0 6.0 0.00 0.00 0.00 72 1012.5
20260509165833 69 48 2.0 6.0 0.00 0.00 0.00 73 1012.6
20260509165334 70 232 1.0 5.0 0.00 0.00 0.00 72 1012.6
20260509164834 70 250 1.0 3.0 0.00 0.00 0.00 72 1012.6
20260509164335 69 344 1.0 3.0 0.00 0.00 0.00 74 1012.6
20260509163834 69 188 1.0 3.0 0.00 0.00 0.00 74 1012.7
20260509163334 69 11 1.0 3.0 0.00 0.00 0.00 74 1012.8
20260509162833 69 215 1.0 4.0 0.00 0.00 0.00 74 1012.9
20260509162331 68 192 1.0 4.0 0.00 0.00 0.00 75 1013.0
20260509161831 68 156 1.0 4.0 0.00 0.00 0.00 74 1013.0
20260509161331 68 204 1.0 3.0 0.00 0.00 0.00 74 1013.2
20260509160831 68 163 1.0 4.0 0.00 0.00 0.00 75 1013.2
20260509160337 68 189 1.0 4.0 0.00 0.00 0.00 75 1013.2
20260509155835 68 174 1.0 4.0 0.00 0.00 0.00 75 1013.4
20260509155626 68 265 1.0 4.0 0.00 0.00 0.00 76 1013.4
20260509154831 67 93 1.0 4.0 0.00 0.00 0.00 76 1013.3
20260509154330 67 250 1.0 4.0 0.00 0.00 0.00 76 1013.3
20260509154154 67 200 1.0 4.0 0.00 0.00 0.00 77 1013.3
20260509153328 67 207 1.0 4.0 0.00 0.00 0.00 77 1013.2
20260509152828 67 199 1.0 4.0 0.00 0.00 0.00 78 1013.2
20260509152329 67 214 1.0 3.0 0.00 0.00 0.00 79 1013.1
20260509151827 66 127 1.0 3.0 0.00 0.00 0.00 80 1013.1
20260509151327 66 121 1.0 3.0 0.00 0.00 0.00 80 1013.1
20260509151131 66 148 1.0 3.0 0.00 0.00 0.00 82 1013.0
20260509150326 65 47 0.0 2.0 0.00 0.00 0.00 81 1013.1
20260509150138 65 125 1.0 2.0 0.00 0.00 0.00 82 1013.1
20260509145325 65 164 1.0 5.0 0.00 0.00 0.00 83 1013.2
20260509144322 64 257 1.0 5.0 0.00 0.00 0.00 83 1013.2
20260509144131 64 194 1.0 5.0 0.00 0.00 0.00 84 1013.2
20260509143322 64 205 1.0 3.0 0.00 0.00 0.00 85 1013.2
20260509142953 64 98 1.0 3.0 0.00 0.00 0.00 85 1013.2
20260509142925 64 65 1.0 3.0 0.00 0.00 0.00 85 1013.1
20260509141823 63 134 1.0 3.0 0.00 0.00 0.00 86 1013.2
20260509141327 63 338 1.0 3.0 0.00 0.00 0.00 87 1013.2
20260509140823 63 223 1.0 3.0 0.00 0.00 0.00 87 1013.3
20260509140632 62 202 1.0 3.0 0.00 0.00 0.00 87 1013.2
20260509135823 62 100 1.0 2.0 0.00 0.00 0.00 88 1013.3
20260509135323 62 108 1.0 3.0 0.00 0.00 0.00 88 1013.5
20260509134823 62 225 1.0 4.0 0.00 0.00 0.00 88 1013.6
20260509134325 62 325 1.0 4.0 0.00 0.00 0.00 89 1013.6
20260509133823 62 30 1.0 4.0 0.00 0.00 0.00 89 1013.6
20260509133627 62 132 1.0 4.0 0.00 0.00 0.00 90 1013.5
20260509132822 61 181 1.0 3.0 0.00 0.00 0.00 91 1013.7
20260509132325 61 113 1.0 2.0 0.00 0.00 0.00 91 1013.8
20260509131822 61 182 0.0 3.0 0.00 0.00 0.00 91 1013.7
20260509131324 60 249 1.0 3.0 0.00 0.00 0.00 91 1013.6
20260509131134 60 79 1.0 3.0 0.00 0.00 0.00 91 1013.9
20260509130324 60 221 1.0 3.0 0.00 0.00 0.00 91 1014.0
20260509125824 60 217 0.0 3.0 0.00 0.00 0.00 92 1014.2
20260509125322 60 250 0.0 3.0 0.00 0.00 0.00 92 1013.9
20260509124820 59 254 0.0 3.0 0.00 0.00 0.00 92 1013.9
20260509124451 59 185 1.0 2.0 0.00 0.00 0.00 92 1014.0
20260509124419 59 30 1.0 3.0 0.00 0.00 0.00 92 1014.0
20260509123634 59 128 1.0 2.0 0.00 0.00 0.00 92 1014.2
20260509122811 58 86 0.0 2.0 0.00 0.00 0.00 93 1014.3
20260509122438 58 163 0.0 2.0 0.00 0.00 0.00 93 1014.4
20260509122409 58 186 0.0 2.0 0.00 0.00 0.00 93 1014.3
20260509121311 58 202 0.0 2.0 0.00 0.00 0.00 93 1014.0
20260509120806 58 168 0.0 2.0 0.00 0.00 0.00 93 1013.8
20260509120308 58 207 0.0 2.0 0.00 0.00 0.00 93 1013.9
20260509115807 57 234 0.0 3.0 0.00 0.00 0.00 93 1014.0
20260509115308 57 191 0.0 3.0 0.00 0.00 0.00 93 1013.8
20260509114808 57 196 1.0 2.0 0.00 0.00 0.00 93 1013.6
20260509114309 57 134 1.0 2.0 0.00 0.00 0.00 93 1013.6
20260509113807 57 124 0.0 2.0 0.00 0.00 0.00 93 1013.6
20260509113306 56 340 0.0 1.0 0.00 0.00 0.00 93 1014.0
20260509112806 56 340 0.0 2.0 0.00 0.00 0.00 92 1014.2
20260509112307 55 340 0.0 2.0 0.00 0.00 0.00 92 1014.0
20260509111804 55 281 0.0 2.0 0.00 0.00 0.00 92 1013.9
20260509111622 55 185 0.0 1.0 0.00 0.00 0.00 92 1013.9
20260509111117 55 185 0.0 1.0 0.00 0.00 0.00 92 1013.9
20260509110304 55 185 0.0 1.0 0.00 0.00 0.00 92 1013.8
20260509105802 54 185 0.0 1.0 0.00 0.00 0.00 92 1013.8
20260509105258 54 185 0.0 1.0 0.00 0.00 0.00 91 1013.9
20260509105112 54 185 0.0 1.0 0.00 0.00 0.00 91 1013.9
20260509104253 54 185 0.0 1.0 0.00 0.00 0.00 90 1013.8
20260509103754 54 185 0.0 1.0 0.00 0.00 0.00 90 1013.8
20260509103552 54 185 0.0 0.0 0.00 0.00 0.00 89 1013.6
20260509102749 54 185 0.0 0.0 0.00 0.00 0.00 88 1013.6
20260509102246 54 185 0.0 0.0 0.00 0.00 0.00 88 1013.5